View from above orbital plane
|
View from above satellite
|
Ground track
|
The orbit data is extracted from the following two-line orbital elements,
1 37673U 11024A 21019.95488910 .00000074 00000-0 19241-4 0 9993
2 37673 98.0076 30.6016 0001128 55.1485 1.4699 14.73059319516715
Epoch (UTC): | 19 January 2021 22:55:02 |
Eccentricity: | 0.0001128 |
inclination: | 98.0076° |
perigee height: | 650 km |
apogee height: | 652 km |
right ascension of ascending node: | 30.6016° |
argument of perigee: | 55.1485° |
revolutions per day: | 14.73059319 |
mean anomaly at epoch: | 1.4699° |
orbit number at epoch: | 51671 |
The dashed part of the orbit path shows where the satellite is in the earth's shadow,
|
|